Simultaneous Nadir Overpasses (SNOs) Predictions

Prediction of SNOs between AQUA and METOP-C Satellite Orbit:

Table of predicted SNOs for the next 14.0 days since TLE Epoch: 10/31/2020
Index Date (AQUA) Time (AQUA) Lat,Lon (AQUA) SZA (AQUA ) Date (METOP-C) Time (METOP-C) Lat,Lon (METOP-C) SZA (METOP-C ) Distance(km) Time Diff (sec)
1 11/02/2020 20:20:58 72.96,-129.26 87.95 11/02/2020 20:19:53 72.93,-132.30 87.96 99.28 65
2 11/02/2020 21:10:38 -73.70, 36.84 91.29 11/02/2020 21:10:20 -73.70, 36.74 91.29 3.21 18
3 11/02/2020 22:00:07 73.79,-155.72 88.82 11/02/2020 22:00:58 73.77,-155.77 88.80 3.16 51
4 11/05/2020 15:55:19 73.32, -63.55 89.18 11/05/2020 15:54:10 73.26, -65.20 89.13 52.91 69
5 11/05/2020 16:44:53 -73.75, 103.18 90.38 11/05/2020 16:44:43 -73.72, 103.19 90.41 2.91 10
6 11/05/2020 17:34:21 73.79, -89.27 89.67 11/05/2020 17:35:21 73.79, -89.31 89.68 1.48 60
7 11/08/2020 11:29:40 73.63, 2.22 90.32 11/08/2020 11:28:27 73.63, 2.05 90.32 5.38 73
8 11/08/2020 12:19:08 -73.75, 169.61 89.55 11/08/2020 12:19:07 -73.74, 169.63 89.57 1.46 1
9 11/08/2020 13:08:36 73.79, -22.83 90.50 11/08/2020 13:09:45 73.81, -22.86 90.52 2.56 69
10 11/11/2020 07:03:56 73.69, 68.52 91.18 11/11/2020 07:02:50 73.69, 68.61 91.18 2.62 66
11 11/11/2020 07:53:23 -73.76,-123.97 88.76 11/11/2020 07:53:31 -73.75,-123.94 88.77 1.50 8
12 11/11/2020 08:42:55 74.00, 43.12 91.51 11/11/2020 08:44:06 73.97, 43.94 91.47 25.32 71
13 11/14/2020 02:38:09 73.66, 135.04 91.89 11/14/2020 02:37:14 73.66, 134.93 91.89 3.48 55
14 11/14/2020 03:27:37 -73.77, -57.57 87.99 11/14/2020 03:27:54 -73.76, -57.51 88.01 2.81 17
